Year,Month,Day,Hour,Minute,Value (Times are PST for temperature in C)
2009,05,03,00,00,8.80
2009,05,03,00,01,8.80
2009,05,03,00,02,8.80
2009,05,03,00,03,8.80
2009,05,03,00,04,8.80
2009,05,03,00,05,8.80
2009,05,03,00,06,8.80
2009,05,03,00,07,8.80
2009,05,03,00,08,8.80
2009,05,03,00,09,8.80
2009,05,03,00,10,8.80
2009,05,03,00,11,8.80
2009,05,03,00,12,8.80
2009,05,03,00,13,8.80
2009,05,03,00,18,8.70
2009,05,03,00,19,8.70
2009,05,03,00,20,8.70
2009,05,03,00,21,8.70
2009,05,03,00,22,8.70
2009,05,03,00,23,8.70
2009,05,03,00,24,8.70
2009,05,03,00,25,8.70
2009,05,03,00,26,8.70
2009,05,03,00,27,8.60
2009,05,03,00,28,8.60
2009,05,03,00,29,8.60
2009,05,03,00,30,8.60
2009,05,03,00,31,8.60
2009,05,03,00,32,8.60
2009,05,03,00,33,8.60
2009,05,03,00,34,8.60
2009,05,03,00,35,8.60
2009,05,03,00,36,8.60
2009,05,03,00,37,8.60
2009,05,03,00,38,8.60
2009,05,03,00,39,8.60
2009,05,03,00,40,8.60
2009,05,03,00,41,8.60
2009,05,03,00,42,8.60
2009,05,03,00,43,8.60
2009,05,03,00,44,8.60
2009,05,03,00,45,8.60
2009,05,03,00,46,8.60
2009,05,03,00,47,8.70
2009,05,03,00,48,8.70
2009,05,03,00,49,8.70
2009,05,03,00,50,8.60
2009,05,03,00,51,8.60
2009,05,03,00,52,8.60
2009,05,03,00,53,8.60
2009,05,03,00,54,8.60
2009,05,03,00,55,8.60
2009,05,03,00,56,8.60
2009,05,03,00,57,8.60
2009,05,03,00,58,8.50
2009,05,03,00,59,8.50
2009,05,03,01,00,8.50
2009,05,03,01,01,8.50
2009,05,03,01,02,8.40
2009,05,03,01,03,8.40
2009,05,03,01,04,8.40
2009,05,03,01,05,8.40
2009,05,03,01,06,8.40
2009,05,03,01,07,8.40
2009,05,03,01,08,8.30
2009,05,03,01,09,8.30
2009,05,03,01,10,8.30
2009,05,03,01,11,8.30
2009,05,03,01,12,8.30
2009,05,03,01,13,8.20
2009,05,03,01,14,8.20
2009,05,03,01,15,8.20
2009,05,03,01,16,8.20
2009,05,03,01,17,8.20
2009,05,03,01,18,8.10
2009,05,03,01,19,8.10
2009,05,03,01,20,8.10
2009,05,03,01,21,8.10
2009,05,03,01,22,8.00
2009,05,03,01,23,8.00
2009,05,03,01,24,8.00
2009,05,03,01,25,7.90
2009,05,03,01,26,7.90
2009,05,03,01,27,7.90
2009,05,03,01,28,7.80
2009,05,03,01,29,7.80
2009,05,03,01,30,7.80
2009,05,03,01,31,7.80
2009,05,03,01,32,7.70
2009,05,03,01,33,7.70
2009,05,03,01,34,7.70
2009,05,03,01,35,7.60
2009,05,03,01,36,7.60
2009,05,03,01,37,7.50
2009,05,03,01,38,7.50
2009,05,03,01,39,7.50
2009,05,03,01,40,7.50
2009,05,03,01,41,7.50
2009,05,03,01,42,7.50
2009,05,03,01,43,7.50
2009,05,03,01,44,7.50
2009,05,03,01,45,7.50
2009,05,03,01,46,7.50
2009,05,03,01,47,7.50
2009,05,03,01,48,7.50
2009,05,03,01,49,7.40
2009,05,03,01,50,7.40
2009,05,03,01,51,7.40
2009,05,03,01,52,7.30
2009,05,03,01,53,7.30
2009,05,03,01,54,7.30
2009,05,03,01,55,7.30
2009,05,03,01,56,7.20
2009,05,03,01,57,7.20
2009,05,03,01,58,7.20
2009,05,03,01,59,7.20
2009,05,03,02,00,7.10
2009,05,03,02,01,7.10
2009,05,03,02,02,7.00
2009,05,03,02,03,7.00
2009,05,03,02,04,7.00
2009,05,03,02,05,7.10
2009,05,03,02,06,7.20
2009,05,03,02,07,7.20
2009,05,03,02,08,7.20
2009,05,03,02,09,7.20
2009,05,03,02,10,7.30
2009,05,03,02,11,7.30
2009,05,03,02,12,7.30
2009,05,03,02,13,7.30
2009,05,03,02,14,7.30
2009,05,03,02,15,7.30
2009,05,03,02,16,7.30
2009,05,03,02,17,7.30
2009,05,03,02,18,7.30
2009,05,03,02,19,7.20
2009,05,03,02,20,7.20
2009,05,03,02,21,7.10
2009,05,03,02,22,7.10
2009,05,03,02,23,7.00
2009,05,03,02,24,6.90
2009,05,03,02,25,6.90
2009,05,03,02,26,6.80
2009,05,03,02,27,6.80
2009,05,03,02,28,6.70
2009,05,03,02,29,6.70
2009,05,03,02,30,6.60
2009,05,03,02,31,6.60
2009,05,03,02,32,6.60
2009,05,03,02,33,6.60
2009,05,03,02,34,6.60
2009,05,03,02,35,6.60
2009,05,03,02,36,6.60
2009,05,03,02,37,6.60
2009,05,03,02,38,6.60
2009,05,03,02,39,6.60
2009,05,03,02,40,6.60
2009,05,03,02,41,6.60
2009,05,03,02,42,6.60
2009,05,03,02,43,6.50
2009,05,03,02,44,6.50
2009,05,03,02,45,6.50
2009,05,03,02,46,6.50
2009,05,03,02,47,6.50
2009,05,03,02,48,6.60
2009,05,03,02,49,6.60
2009,05,03,02,50,6.60
2009,05,03,02,51,6.60
2009,05,03,02,52,6.70
2009,05,03,02,53,6.70
2009,05,03,02,54,6.70
2009,05,03,02,55,6.70
2009,05,03,02,56,6.80
2009,05,03,02,57,6.80
2009,05,03,02,58,6.80
2009,05,03,02,59,6.80
2009,05,03,03,00,6.90
2009,05,03,03,01,6.90
2009,05,03,03,02,6.90
2009,05,03,03,03,6.90
2009,05,03,03,04,6.90
2009,05,03,03,05,7.00
2009,05,03,03,06,7.00
2009,05,03,03,07,7.00
2009,05,03,03,08,7.00
2009,05,03,03,09,7.00
2009,05,03,03,10,7.00
2009,05,03,03,11,7.00
2009,05,03,03,12,7.00
2009,05,03,03,13,6.90
2009,05,03,03,14,6.90
2009,05,03,03,15,6.90
2009,05,03,03,16,6.90
2009,05,03,03,17,6.90
2009,05,03,03,18,6.90
2009,05,03,03,19,6.80
2009,05,03,03,20,6.80
2009,05,03,03,21,6.80
2009,05,03,03,22,6.80
2009,05,03,03,23,6.80
2009,05,03,03,24,6.80
2009,05,03,03,25,6.80
2009,05,03,03,26,6.80
2009,05,03,03,27,6.80
2009,05,03,03,28,6.80
2009,05,03,03,29,6.80
2009,05,03,03,30,6.70
2009,05,03,03,31,6.70
2009,05,03,03,32,6.70
2009,05,03,03,33,6.70
2009,05,03,03,34,6.70
2009,05,03,03,35,6.70
2009,05,03,03,36,6.70
2009,05,03,03,37,6.70
2009,05,03,03,38,6.70
2009,05,03,03,39,6.70
2009,05,03,03,40,6.70
2009,05,03,03,41,6.70
2009,05,03,03,42,6.60
2009,05,03,03,43,6.60
2009,05,03,03,44,6.60
2009,05,03,03,45,6.60
2009,05,03,03,46,6.60
2009,05,03,03,47,6.60
2009,05,03,03,48,6.50
2009,05,03,03,49,6.50
2009,05,03,03,50,6.60
2009,05,03,03,51,6.50
2009,05,03,03,52,6.50
2009,05,03,03,53,6.50
2009,05,03,03,54,6.50
2009,05,03,03,55,6.50
2009,05,03,03,56,6.50
2009,05,03,03,57,6.50
2009,05,03,03,58,6.50
2009,05,03,03,59,6.50
2009,05,03,04,00,6.50
2009,05,03,04,01,6.40
2009,05,03,04,02,6.40
2009,05,03,04,03,6.40
2009,05,03,04,04,6.40
2009,05,03,04,05,6.30
2009,05,03,04,06,6.30
2009,05,03,04,07,6.30
2009,05,03,04,08,6.30
2009,05,03,04,09,6.30
2009,05,03,04,10,6.20
2009,05,03,04,11,6.20
2009,05,03,04,12,6.10
2009,05,03,04,13,6.10
2009,05,03,04,14,6.00
2009,05,03,04,15,6.00
2009,05,03,04,16,5.90
2009,05,03,04,17,5.90
2009,05,03,04,18,5.80
2009,05,03,04,19,5.80
2009,05,03,04,20,5.70
2009,05,03,04,21,5.70
2009,05,03,04,22,5.60
2009,05,03,04,23,5.60
2009,05,03,04,24,5.50
2009,05,03,04,25,5.50
2009,05,03,04,26,5.40
2009,05,03,04,27,5.40
2009,05,03,04,28,5.40
2009,05,03,04,29,5.30
2009,05,03,04,30,5.30
2009,05,03,04,31,5.30
2009,05,03,04,32,5.30
2009,05,03,04,33,5.20
2009,05,03,04,34,5.20
2009,05,03,04,35,5.20
2009,05,03,04,36,5.20
2009,05,03,04,37,5.10
2009,05,03,04,38,5.10
2009,05,03,04,39,5.10
2009,05,03,04,40,5.10
2009,05,03,04,41,5.10
2009,05,03,04,42,5.10
2009,05,03,04,43,5.10
2009,05,03,04,44,5.00
2009,05,03,04,45,5.00
2009,05,03,04,46,5.00
2009,05,03,04,47,5.00
2009,05,03,04,48,5.00
2009,05,03,04,49,4.90
2009,05,03,04,50,4.90
2009,05,03,04,51,4.90
2009,05,03,04,52,4.80
2009,05,03,04,53,4.80
2009,05,03,04,54,4.80
2009,05,03,04,55,4.80
2009,05,03,04,56,4.80
2009,05,03,04,57,4.70
2009,05,03,04,58,4.60
2009,05,03,04,59,4.60
2009,05,03,05,00,4.50
2009,05,03,05,01,4.50
2009,05,03,05,02,4.40
2009,05,03,05,03,4.40
2009,05,03,05,04,4.40
2009,05,03,05,05,4.40
2009,05,03,05,06,4.40
2009,05,03,05,07,4.40
2009,05,03,05,08,4.40
2009,05,03,05,09,4.40
2009,05,03,05,10,4.40
2009,05,03,05,11,4.40
2009,05,03,05,12,4.40
2009,05,03,05,13,4.40
2009,05,03,05,14,4.40
2009,05,03,05,15,4.40
2009,05,03,05,16,4.40
2009,05,03,05,17,4.50
2009,05,03,05,18,4.50
2009,05,03,05,19,4.60
2009,05,03,05,20,4.60
2009,05,03,05,21,4.60
2009,05,03,05,22,4.60
2009,05,03,05,23,4.60
2009,05,03,05,24,4.50
2009,05,03,05,25,4.50
2009,05,03,05,26,4.50
2009,05,03,05,27,4.50
2009,05,03,05,28,4.40
2009,05,03,05,29,4.40
2009,05,03,05,30,4.30
2009,05,03,05,31,4.30
2009,05,03,05,32,4.30
2009,05,03,05,33,4.30
2009,05,03,05,34,4.30
2009,05,03,05,35,4.30
2009,05,03,05,36,4.30
2009,05,03,05,37,4.30
2009,05,03,05,38,4.30
2009,05,03,05,39,4.30
2009,05,03,05,40,4.30
2009,05,03,05,41,4.40
2009,05,03,05,42,4.40
2009,05,03,05,43,4.40
2009,05,03,05,44,4.40
2009,05,03,05,45,4.50
2009,05,03,05,46,4.50
2009,05,03,05,47,4.50
2009,05,03,05,48,4.50
2009,05,03,05,49,4.50
2009,05,03,05,50,4.50
2009,05,03,05,51,4.50
2009,05,03,05,52,4.40
2009,05,03,05,53,4.40
2009,05,03,05,54,4.40
2009,05,03,05,55,4.40
2009,05,03,05,56,4.40
2009,05,03,05,57,4.30
2009,05,03,05,58,4.30
2009,05,03,05,59,4.30
2009,05,03,06,00,4.30
2009,05,03,06,01,4.30
2009,05,03,06,02,4.30
2009,05,03,06,03,4.30
2009,05,03,06,04,4.40
2009,05,03,06,05,4.40
2009,05,03,06,06,4.50
2009,05,03,06,07,4.50
2009,05,03,06,08,4.60
2009,05,03,06,09,4.60
2009,05,03,06,10,4.60
2009,05,03,06,11,4.70
2009,05,03,06,12,4.70
2009,05,03,06,13,4.70
2009,05,03,06,14,4.70
2009,05,03,06,15,4.70
2009,05,03,06,16,4.70
2009,05,03,06,17,4.70
2009,05,03,06,18,4.70
2009,05,03,06,19,4.60
2009,05,03,06,20,4.60
2009,05,03,06,21,4.60
2009,05,03,06,22,4.60
2009,05,03,06,23,4.60
2009,05,03,06,24,4.60
2009,05,03,06,25,4.70
2009,05,03,06,26,4.70
2009,05,03,06,27,4.70
2009,05,03,06,28,4.70
2009,05,03,06,29,4.70
2009,05,03,06,30,4.80
2009,05,03,06,31,4.80
2009,05,03,06,32,4.80
2009,05,03,06,33,4.80
2009,05,03,06,34,4.80
2009,05,03,06,35,4.80
2009,05,03,06,36,4.80
2009,05,03,06,37,4.80
2009,05,03,06,38,4.80
2009,05,03,06,39,4.80
2009,05,03,06,40,4.80
2009,05,03,06,41,4.90
2009,05,03,06,42,4.90
2009,05,03,06,43,4.90
2009,05,03,06,44,4.90
2009,05,03,06,45,5.00
2009,05,03,06,46,5.00
2009,05,03,06,47,5.00
2009,05,03,06,48,5.00
2009,05,03,06,49,5.00
2009,05,03,06,50,5.00
2009,05,03,06,51,5.00
2009,05,03,06,52,5.00
2009,05,03,06,53,5.00
2009,05,03,06,54,5.00
2009,05,03,06,55,5.00
2009,05,03,06,56,5.10
2009,05,03,06,57,5.10
2009,05,03,06,58,5.10
2009,05,03,06,59,5.20
2009,05,03,07,00,5.20
2009,05,03,07,01,5.20
2009,05,03,07,02,5.30
2009,05,03,07,03,5.30
2009,05,03,07,04,5.30
2009,05,03,07,05,5.40
2009,05,03,07,06,5.40
2009,05,03,07,07,5.40
2009,05,03,07,08,5.50
2009,05,03,07,09,5.50
2009,05,03,07,10,5.60
2009,05,03,07,11,5.60
2009,05,03,07,12,5.60
2009,05,03,07,13,5.70
2009,05,03,07,14,5.70
2009,05,03,07,15,5.70
2009,05,03,07,16,5.80
2009,05,03,07,17,5.80
2009,05,03,07,18,5.80
2009,05,03,07,19,5.80
2009,05,03,07,20,5.80
2009,05,03,07,21,5.90
2009,05,03,07,22,5.90
2009,05,03,07,23,6.00
2009,05,03,07,24,6.00
2009,05,03,07,25,6.10
2009,05,03,07,26,6.10
2009,05,03,07,27,6.10
2009,05,03,07,28,6.20
2009,05,03,07,29,6.20
2009,05,03,07,30,6.30
2009,05,03,07,31,6.30
2009,05,03,07,32,6.40
2009,05,03,07,33,6.50
2009,05,03,07,34,6.50
2009,05,03,07,35,6.50
2009,05,03,07,36,6.60
2009,05,03,07,37,6.60
2009,05,03,07,38,6.70
2009,05,03,07,39,6.70
2009,05,03,07,40,6.70
2009,05,03,07,41,6.80
2009,05,03,07,42,6.90
2009,05,03,07,43,7.00
2009,05,03,07,44,7.10
2009,05,03,07,45,7.20
2009,05,03,07,46,7.20
2009,05,03,07,47,7.30
2009,05,03,07,48,7.40
2009,05,03,07,49,7.40
2009,05,03,07,50,7.50
2009,05,03,07,51,7.60
2009,05,03,07,52,7.60
2009,05,03,07,53,7.60
2009,05,03,07,54,7.70
2009,05,03,07,55,7.70
2009,05,03,07,56,7.80
2009,05,03,07,57,7.80
2009,05,03,07,58,7.80
2009,05,03,07,59,7.90
2009,05,03,08,00,7.90
2009,05,03,08,01,7.90
2009,05,03,08,02,7.90
2009,05,03,08,03,7.90
2009,05,03,08,04,7.90
2009,05,03,08,05,7.90
2009,05,03,08,06,7.90
2009,05,03,08,07,7.90
2009,05,03,08,08,7.90
2009,05,03,08,09,8.00
2009,05,03,08,10,8.00
2009,05,03,08,11,8.10
2009,05,03,08,12,8.10
2009,05,03,08,13,8.10
2009,05,03,08,14,8.10
2009,05,03,08,15,8.10
2009,05,03,08,16,8.20
2009,05,03,08,17,8.20
2009,05,03,08,18,8.20
2009,05,03,08,19,8.20
2009,05,03,08,20,8.30
2009,05,03,08,21,8.30
2009,05,03,08,22,8.30
2009,05,03,08,23,8.30
2009,05,03,08,24,8.30
2009,05,03,08,25,8.30
2009,05,03,08,26,8.30
2009,05,03,08,27,8.40
2009,05,03,08,28,8.40
2009,05,03,08,29,8.40
2009,05,03,08,30,8.40
2009,05,03,08,31,8.40
2009,05,03,08,32,8.50
2009,05,03,08,33,8.50
2009,05,03,08,34,8.60
2009,05,03,08,35,8.60
2009,05,03,08,36,8.70
2009,05,03,08,37,8.90
2009,05,03,08,38,9.00
2009,05,03,08,39,9.00
2009,05,03,08,40,9.10
2009,05,03,08,41,9.20
2009,05,03,08,42,9.20
2009,05,03,08,43,9.30
2009,05,03,08,44,9.30
2009,05,03,08,45,9.40
2009,05,03,08,46,9.50
2009,05,03,08,47,9.60
2009,05,03,08,48,9.70
2009,05,03,08,49,9.80
2009,05,03,08,50,9.80
2009,05,03,08,51,9.90
2009,05,03,08,52,9.90
2009,05,03,08,53,10.00
2009,05,03,08,54,10.00
2009,05,03,08,55,10.10
2009,05,03,08,56,10.10
2009,05,03,08,57,10.20
2009,05,03,08,58,10.20
2009,05,03,08,59,10.30
2009,05,03,09,00,10.30
2009,05,03,09,01,10.40
2009,05,03,09,02,10.40
2009,05,03,09,03,10.50
2009,05,03,09,04,10.60
2009,05,03,09,05,10.70
2009,05,03,09,06,10.70
2009,05,03,09,07,10.70
2009,05,03,09,08,10.60
2009,05,03,09,09,10.60
2009,05,03,09,10,10.60
2009,05,03,09,11,10.60
2009,05,03,09,12,10.60
2009,05,03,09,13,10.60
2009,05,03,09,14,10.60
2009,05,03,09,15,10.70
2009,05,03,09,16,10.80
2009,05,03,09,17,10.80
2009,05,03,09,18,10.90
2009,05,03,09,19,11.00
2009,05,03,09,20,11.00
2009,05,03,09,21,11.10
2009,05,03,09,22,11.20
2009,05,03,09,23,11.20
2009,05,03,09,24,11.20
2009,05,03,09,25,11.10
2009,05,03,09,26,11.00
2009,05,03,09,27,11.00
2009,05,03,09,28,10.90
2009,05,03,09,29,10.90
2009,05,03,09,30,10.80
2009,05,03,09,31,10.90
2009,05,03,09,32,10.90
2009,05,03,09,33,10.80
2009,05,03,09,34,10.80
2009,05,03,09,35,10.90
2009,05,03,09,36,10.90
2009,05,03,09,37,10.90
2009,05,03,09,38,11.00
2009,05,03,09,39,11.10
2009,05,03,09,40,11.20
2009,05,03,09,41,11.30
2009,05,03,09,42,11.50
2009,05,03,09,43,11.60
2009,05,03,09,44,11.70
2009,05,03,09,45,11.80
2009,05,03,09,46,11.80
2009,05,03,09,47,11.90
2009,05,03,09,48,12.00
2009,05,03,09,49,12.10
2009,05,03,09,50,12.20
2009,05,03,09,51,12.20
2009,05,03,09,52,12.30
2009,05,03,09,53,12.40
2009,05,03,09,54,12.50
2009,05,03,09,55,12.40
2009,05,03,09,56,12.20
2009,05,03,09,57,12.00
2009,05,03,09,58,11.80
2009,05,03,09,59,11.70
2009,05,03,10,00,11.70
2009,05,03,10,01,11.70
2009,05,03,10,02,11.80
2009,05,03,10,03,11.90
2009,05,03,10,04,12.00
2009,05,03,10,05,12.10
2009,05,03,10,06,12.20
2009,05,03,10,07,12.20
2009,05,03,10,08,12.20
2009,05,03,10,09,12.30
2009,05,03,10,10,12.20
2009,05,03,10,11,12.20
2009,05,03,10,12,12.10
2009,05,03,10,13,12.00
2009,05,03,10,14,12.00
2009,05,03,10,15,12.10
2009,05,03,10,16,12.00
2009,05,03,10,17,12.00
2009,05,03,10,18,11.90
2009,05,03,10,19,11.90
2009,05,03,10,20,12.00
2009,05,03,10,21,12.00
2009,05,03,10,22,12.10
2009,05,03,10,23,12.00
2009,05,03,10,24,12.00
2009,05,03,10,25,11.90
2009,05,03,10,26,11.80
2009,05,03,10,27,11.80
2009,05,03,10,28,11.80
2009,05,03,10,29,11.80
2009,05,03,10,30,11.90
2009,05,03,10,31,11.80
2009,05,03,10,32,11.90
2009,05,03,10,33,12.00
2009,05,03,10,34,12.10
2009,05,03,10,35,12.20
2009,05,03,10,36,12.20
2009,05,03,10,37,12.30
2009,05,03,10,38,12.40
2009,05,03,10,39,12.40
2009,05,03,10,40,12.50
2009,05,03,10,41,12.60
2009,05,03,10,42,12.60
2009,05,03,10,43,12.70
2009,05,03,10,44,12.80
2009,05,03,10,45,12.80
2009,05,03,10,46,12.80
2009,05,03,10,47,12.90
2009,05,03,10,48,12.90
2009,05,03,10,49,12.80
2009,05,03,10,50,12.80
2009,05,03,10,51,12.60
2009,05,03,10,52,12.40
2009,05,03,10,53,12.30
2009,05,03,10,54,12.30
2009,05,03,10,55,12.30
2009,05,03,10,56,12.30
2009,05,03,10,57,12.30
2009,05,03,10,58,12.30
2009,05,03,10,59,12.20
2009,05,03,11,00,12.20
2009,05,03,11,01,12.30
2009,05,03,11,02,12.30
2009,05,03,11,03,12.30
2009,05,03,11,04,12.10
2009,05,03,11,05,12.10
2009,05,03,11,06,12.20
2009,05,03,11,07,12.30
2009,05,03,11,08,12.40
2009,05,03,11,09,12.40
2009,05,03,11,10,12.40
2009,05,03,11,11,12.50
2009,05,03,11,12,12.50
2009,05,03,11,13,12.50
2009,05,03,11,14,12.50
2009,05,03,11,15,12.60
2009,05,03,11,16,12.70
2009,05,03,11,17,12.80
2009,05,03,11,18,12.90
2009,05,03,11,19,12.90
2009,05,03,11,20,13.00
2009,05,03,11,21,13.10
2009,05,03,11,22,13.10
2009,05,03,11,23,12.90
2009,05,03,11,24,12.70
2009,05,03,11,25,12.50
2009,05,03,11,26,12.50
2009,05,03,11,27,12.40
2009,05,03,11,28,12.30
2009,05,03,11,29,12.40
2009,05,03,11,30,12.50
2009,05,03,11,31,12.50
2009,05,03,11,32,12.50
2009,05,03,11,33,12.50
2009,05,03,11,34,12.60
2009,05,03,11,35,12.60
2009,05,03,11,36,12.70
2009,05,03,11,37,12.80
2009,05,03,11,38,12.70
2009,05,03,11,39,12.70
2009,05,03,11,40,12.70
2009,05,03,11,41,12.80
2009,05,03,11,42,12.90
2009,05,03,11,43,12.90
2009,05,03,11,44,12.90
2009,05,03,11,45,13.00
2009,05,03,11,46,13.10
2009,05,03,11,47,13.10
2009,05,03,11,48,13.20
2009,05,03,11,49,13.20
2009,05,03,11,50,13.30
2009,05,03,11,51,13.20
2009,05,03,11,52,13.20
2009,05,03,11,53,13.30
2009,05,03,11,54,13.40
2009,05,03,11,55,13.40
2009,05,03,11,56,13.40
2009,05,03,11,57,13.30
2009,05,03,11,58,13.20
2009,05,03,11,59,13.20
2009,05,03,12,00,13.20
2009,05,03,12,01,13.30
2009,05,03,12,02,13.40
2009,05,03,12,03,13.50
2009,05,03,12,04,13.70
2009,05,03,12,05,13.60
2009,05,03,12,06,13.40
2009,05,03,12,07,13.20
2009,05,03,12,08,13.10
2009,05,03,12,09,13.10
2009,05,03,12,10,13.20
2009,05,03,12,11,13.20
2009,05,03,12,12,13.40
2009,05,03,12,13,13.30
2009,05,03,12,14,13.30
2009,05,03,12,15,13.30
2009,05,03,12,16,13.40
2009,05,03,12,17,13.40
2009,05,03,12,18,13.40
2009,05,03,12,19,13.50
2009,05,03,12,20,13.60
2009,05,03,12,21,13.60
2009,05,03,12,22,13.60
2009,05,03,12,23,13.60
2009,05,03,12,24,13.60
2009,05,03,12,25,13.50
2009,05,03,12,26,13.50
2009,05,03,12,27,13.30
2009,05,03,12,28,13.20
2009,05,03,12,29,13.30
2009,05,03,12,30,13.40
2009,05,03,12,31,13.50
2009,05,03,12,32,13.70
2009,05,03,12,33,13.60
2009,05,03,12,34,13.60
2009,05,03,12,35,13.60
2009,05,03,12,36,13.60
2009,05,03,12,37,13.70
2009,05,03,12,38,13.70
2009,05,03,12,39,13.60
2009,05,03,12,40,13.60
2009,05,03,12,41,13.60
2009,05,03,12,42,13.40
2009,05,03,12,43,13.40
2009,05,03,12,44,13.40
2009,05,03,12,45,13.50
2009,05,03,12,46,13.50
2009,05,03,12,47,13.40
2009,05,03,12,48,13.50
2009,05,03,12,49,13.60
2009,05,03,12,50,13.70
2009,05,03,12,51,13.80
2009,05,03,12,52,13.80
2009,05,03,12,53,13.70
2009,05,03,12,54,13.60
2009,05,03,12,55,13.60
2009,05,03,12,56,13.60
2009,05,03,12,57,13.70
2009,05,03,12,58,13.80
2009,05,03,12,59,13.80
2009,05,03,13,00,13.70
2009,05,03,13,01,13.60
2009,05,03,13,02,13.60
2009,05,03,13,03,13.60
2009,05,03,13,04,13.60
2009,05,03,13,05,13.60
2009,05,03,13,06,13.60
2009,05,03,13,07,13.60
2009,05,03,13,08,13.70
2009,05,03,13,09,13.70
2009,05,03,13,10,13.70
2009,05,03,13,11,13.70
2009,05,03,13,12,13.70
2009,05,03,13,13,13.70
2009,05,03,13,14,13.60
2009,05,03,13,15,13.60
2009,05,03,13,16,13.70
2009,05,03,13,17,13.80
2009,05,03,13,18,13.90
2009,05,03,13,19,13.90
2009,05,03,13,20,13.90
2009,05,03,13,21,13.80
2009,05,03,13,22,13.50
2009,05,03,13,23,13.30
2009,05,03,13,24,13.20
2009,05,03,13,25,13.20
2009,05,03,13,26,13.20
2009,05,03,13,27,13.30
2009,05,03,13,28,13.50
2009,05,03,13,29,13.50
2009,05,03,13,30,13.40
2009,05,03,13,31,13.30
2009,05,03,13,32,13.30
2009,05,03,13,33,13.30
2009,05,03,13,34,13.30
2009,05,03,13,35,13.40
2009,05,03,13,36,13.50
2009,05,03,13,37,13.50
2009,05,03,13,38,13.50
2009,05,03,13,39,13.60
2009,05,03,13,40,13.60
2009,05,03,13,41,13.70
2009,05,03,13,42,13.70
2009,05,03,13,43,13.70
2009,05,03,13,44,13.60
2009,05,03,13,45,13.50
2009,05,03,13,46,13.50
2009,05,03,13,47,13.40
2009,05,03,13,48,13.30
2009,05,03,13,49,13.30
2009,05,03,13,50,13.30
2009,05,03,13,51,13.20
2009,05,03,13,52,13.20
2009,05,03,13,53,13.20
2009,05,03,13,54,13.20
2009,05,03,13,55,13.20
2009,05,03,13,56,13.30
2009,05,03,13,57,13.30
2009,05,03,13,58,13.40
2009,05,03,13,59,13.50
2009,05,03,14,00,13.50
2009,05,03,14,01,13.60
2009,05,03,14,02,13.60
2009,05,03,14,03,13.50
2009,05,03,14,04,13.40
2009,05,03,14,05,13.40
2009,05,03,14,06,13.40
2009,05,03,14,07,13.40
2009,05,03,14,08,13.50
2009,05,03,14,09,13.70
2009,05,03,14,10,13.70
2009,05,03,14,11,13.60
2009,05,03,14,12,13.50
2009,05,03,14,13,13.40
2009,05,03,14,14,13.40
2009,05,03,14,15,13.30
2009,05,03,14,16,13.30
2009,05,03,14,17,13.30
2009,05,03,14,18,13.30
2009,05,03,14,19,13.20
2009,05,03,14,20,13.20
2009,05,03,14,21,13.10
2009,05,03,14,22,13.20
2009,05,03,14,23,13.20
2009,05,03,14,24,13.30
2009,05,03,14,25,13.20
2009,05,03,14,26,13.10
2009,05,03,14,27,13.10
2009,05,03,14,28,13.10
2009,05,03,14,29,13.00
2009,05,03,14,30,13.00
2009,05,03,14,31,13.10
2009,05,03,14,32,13.10
2009,05,03,14,33,13.10
2009,05,03,14,34,13.10
2009,05,03,14,35,13.10
2009,05,03,14,36,13.10
2009,05,03,14,37,13.20
2009,05,03,14,38,13.20
2009,05,03,14,39,13.10
2009,05,03,14,40,13.10
2009,05,03,14,41,13.20
2009,05,03,14,42,13.30
2009,05,03,14,43,13.40
2009,05,03,14,44,13.50
2009,05,03,14,45,13.50
2009,05,03,14,46,13.70
2009,05,03,14,47,13.70
2009,05,03,14,48,13.60
2009,05,03,14,49,13.40
2009,05,03,14,50,13.30
2009,05,03,14,51,13.20
2009,05,03,14,52,13.20
2009,05,03,14,53,13.10
2009,05,03,14,54,13.20
2009,05,03,14,55,13.30
2009,05,03,14,56,13.30
2009,05,03,14,57,13.30
2009,05,03,14,58,13.30
2009,05,03,14,59,13.30
2009,05,03,15,00,13.30
2009,05,03,15,01,13.20
2009,05,03,15,02,13.10
2009,05,03,15,03,13.10
2009,05,03,15,04,13.10
2009,05,03,15,05,13.30
2009,05,03,15,06,13.40
2009,05,03,15,07,13.40
2009,05,03,15,08,13.40
2009,05,03,15,09,13.40
2009,05,03,15,10,13.40
2009,05,03,15,11,13.40
2009,05,03,15,12,13.40
2009,05,03,15,13,13.30
2009,05,03,15,14,13.20
2009,05,03,15,15,13.10
2009,05,03,15,16,12.90
2009,05,03,15,17,12.90
2009,05,03,15,18,12.90
2009,05,03,15,19,12.90
2009,05,03,15,20,13.00
2009,05,03,15,21,13.00
2009,05,03,15,22,13.00
2009,05,03,15,23,13.10
2009,05,03,15,24,13.10
2009,05,03,15,25,13.20
2009,05,03,15,26,13.30
2009,05,03,15,27,13.30
2009,05,03,15,28,13.40
2009,05,03,15,29,13.40
2009,05,03,15,30,13.40
2009,05,03,15,31,13.50
2009,05,03,15,32,13.70
2009,05,03,15,33,13.80
2009,05,03,15,34,13.70
2009,05,03,15,35,13.50
2009,05,03,15,36,13.40
2009,05,03,15,37,13.30
2009,05,03,15,38,13.30
2009,05,03,15,39,13.20
2009,05,03,15,40,13.20
2009,05,03,15,41,13.30
2009,05,03,15,42,13.30
2009,05,03,15,43,13.20
2009,05,03,15,44,13.20
2009,05,03,15,45,13.20
2009,05,03,15,46,13.10
2009,05,03,15,47,13.10
2009,05,03,15,48,13.00
2009,05,03,15,49,12.90
2009,05,03,15,50,12.80
2009,05,03,15,51,12.80
2009,05,03,15,52,12.80
2009,05,03,15,53,12.80
2009,05,03,15,54,12.80
2009,05,03,15,55,12.70
2009,05,03,15,56,12.70
2009,05,03,15,57,12.80
2009,05,03,15,58,12.90
2009,05,03,15,59,13.00
2009,05,03,16,00,13.00
2009,05,03,16,01,13.10
2009,05,03,16,02,12.90
2009,05,03,16,03,12.80
2009,05,03,16,04,12.80
2009,05,03,16,05,12.80
2009,05,03,16,06,12.80
2009,05,03,16,07,12.80
2009,05,03,16,08,12.70
2009,05,03,16,09,12.70
2009,05,03,16,10,12.70
2009,05,03,16,11,12.70
2009,05,03,16,12,12.60
2009,05,03,16,13,12.50
2009,05,03,16,14,12.40
2009,05,03,16,15,12.40
2009,05,03,16,16,12.40
2009,05,03,16,17,12.30
2009,05,03,16,18,12.20
2009,05,03,16,19,12.20
2009,05,03,16,20,12.20
2009,05,03,16,21,12.20
2009,05,03,16,22,12.20
2009,05,03,16,23,12.20
2009,05,03,16,24,12.10
2009,05,03,16,25,12.10
2009,05,03,16,26,12.10
2009,05,03,16,27,12.20
2009,05,03,16,28,12.20
2009,05,03,16,29,12.20
2009,05,03,16,30,12.30
2009,05,03,16,31,12.40
2009,05,03,16,32,12.40
2009,05,03,16,33,12.50
2009,05,03,16,34,12.50
2009,05,03,16,35,12.60
2009,05,03,16,36,12.50
2009,05,03,16,37,12.50
2009,05,03,16,38,12.50
2009,05,03,16,39,12.40
2009,05,03,16,40,12.40
2009,05,03,16,41,12.40
2009,05,03,16,42,12.30
2009,05,03,16,43,12.30
2009,05,03,16,44,12.20
2009,05,03,16,45,12.20
2009,05,03,16,46,12.10
2009,05,03,16,47,12.20
2009,05,03,16,48,12.20
2009,05,03,16,49,12.30
2009,05,03,16,50,12.40
2009,05,03,16,51,12.40
2009,05,03,16,52,12.50
2009,05,03,16,53,12.60
2009,05,03,16,54,12.60
2009,05,03,16,55,12.60
2009,05,03,16,56,12.60
2009,05,03,16,57,12.50
2009,05,03,16,58,12.40
2009,05,03,16,59,12.40
2009,05,03,17,00,12.40
2009,05,03,17,01,12.50
2009,05,03,17,02,12.60
2009,05,03,17,03,12.80
2009,05,03,17,04,12.90
2009,05,03,17,05,13.00
2009,05,03,17,06,13.10
2009,05,03,17,07,13.10
2009,05,03,17,08,13.20
2009,05,03,17,09,13.20
2009,05,03,17,10,13.30
2009,05,03,17,11,13.30
2009,05,03,17,12,13.30
2009,05,03,17,13,13.30
2009,05,03,17,14,13.30
2009,05,03,17,15,13.30
2009,05,03,17,16,13.30
2009,05,03,17,17,13.20
2009,05,03,17,18,13.00
2009,05,03,17,19,12.90
2009,05,03,17,20,12.80
2009,05,03,17,21,12.90
2009,05,03,17,22,13.00
2009,05,03,17,23,13.10
2009,05,03,17,24,13.20
2009,05,03,17,25,13.20
2009,05,03,17,26,13.20
2009,05,03,17,27,13.20
2009,05,03,17,28,13.30
2009,05,03,17,29,13.30
2009,05,03,17,30,13.30
2009,05,03,17,31,13.30
2009,05,03,17,32,13.30
2009,05,03,17,33,13.30
2009,05,03,17,34,13.20
2009,05,03,17,35,13.10
2009,05,03,17,36,13.10
2009,05,03,17,37,13.10
2009,05,03,17,38,13.20
2009,05,03,17,39,13.10
2009,05,03,17,40,13.10
2009,05,03,17,41,13.00
2009,05,03,17,42,13.00
2009,05,03,17,43,13.00
2009,05,03,17,44,12.90
2009,05,03,17,45,13.00
2009,05,03,17,46,13.10